Location: Newark
(25.1987°N, 100.3705°W)
Time: 00:52:14
(UTC+00:00)

Envisat - Visible Passes

Search period start: 01 August 2021 00:00
Search period end: 11 August 2021 00:00
Orbit: 764 x 766 km, 98.2° (Epoch: 31 July)

Date Brightness Start Highest point End Pass type
(mag) Time Alt. Az. Time Alt. Az. Time Alt. Az.
01 Aug 3.9 11:31:37 10° NNE 11:36:34 53° E 11:41:30 10° S visible
02 Aug 5.5 10:55:55 10° NE 10:59:38 20° E 11:03:21 10° SE visible
04 Aug 4.4 11:20:20 10° NNE 11:25:04 39° E 11:29:47 10° SSE visible
05 Aug 5.7 10:45:12 10° ENE 10:48:06 15° E 10:51:00 10° SE visible
06 Aug 3.2 11:45:20 10° NNE 11:50:25 79° ESE 11:55:29 10° S visible
07 Aug 4.9 11:09:08 10° NE 11:13:34 30° E 11:17:57 10° SSE visible
08 Aug 6.0 10:35:11 10° ENE 10:36:33 11° E 10:37:54 10° ESE visible
09 Aug 3.7 11:33:56 10° NNE 11:38:56 58° E 11:43:55 10° S visible
10 Aug 5.4 10:58:06 10° NE 11:02:02 22° E 11:05:56 10° SSE visible
